This is the latest recevied weather packets stored in our database for station/object K6CEG. If no packets are shown the sender has not sent any weather packets the latest 10 day(s).
| Time | Temp. | Humidity | Pressure | Rain* | Wind** | Luminosity | Snow |
|---|---|---|---|---|---|---|---|
| 1787942175 | 36.67° C | 39% | 1014.7 hPa | 0 mm | - | 613 W/m² | - |
| 1787941870 | 36.67° C | 37% | 1014.3 hPa | 0 mm | - | 741 W/m² | - |
| 1787941569 | 36.11° C | 39% | 1014.6 hPa | 0 mm | - | 744 W/m² | - |
| 1787941264 | 36.67° C | 37% | 1014.6 hPa | 0 mm | - | 767 W/m² | - |
| 1787940963 | 37.22° C | 37% | 1014.4 hPa | 0 mm | - | 814 W/m² | - |
| 1787940663 | 36.67° C | 38% | 1014.6 hPa | 0 mm | - | 751 W/m² | - |
| 1787940361 | 36.11° C | 38% | 1014.6 hPa | 0 mm | - | 817 W/m² | - |
| 1787940061 | 35.56° C | 39% | 1014.7 hPa | 0 mm | - | 791 W/m² | - |
| 1787939761 | 35° C | 40% | 1014.5 hPa | 0 mm | - | 767 W/m² | - |
| 1787939455 | 34.44° C | 41% | 1014.7 hPa | 0 mm | - | 728 W/m² | - |
| 1787939151 | 34.44° C | 41% | 1014.6 hPa | 0 mm | - | 652 W/m² | - |
| 1787938850 | 35° C | 41% | 1014.5 hPa | 0 mm | - | 684 W/m² | - |
| 1787938544 | 34.44° C | 41% | 1014.7 hPa | 0 mm | - | 751 W/m² | - |
| 1787938240 | 34.44° C | 44% | 1014.4 hPa | 0 mm | - | 740 W/m² | - |
| 1787937940 | 33.89° C | 43% | 1014.6 hPa | 0 mm | - | 615 W/m² | - |
| 1787937635 | 33.33° C | 44% | 1014.7 hPa | 0 mm | - | 718 W/m² | - |
| 1787937332 | 33.33° C | 46% | 1014.9 hPa | 0 mm | - | 488 W/m² | - |
| 1787937027 | 34.44° C | 44% | 1014.7 hPa | 0 mm | - | 677 W/m² | - |
| 1787936726 | 34.44° C | 44% | 1014.8 hPa | 0 mm | - | 596 W/m² | - |
| 1787936421 | 33.89° C | 44% | 1014.5 hPa | 0 mm | - | 545 W/m² | - |
| 1787936121 | 33.89° C | 45% | 1014.3 hPa | 0 mm | - | 473 W/m² | - |
| 1787935816 | 33.89° C | 45% | 1014.2 hPa | 0 mm | - | 507 W/m² | - |
| 1787935513 | 33.33° C | 46% | 1014.3 hPa | 0 mm | - | 460 W/m² | - |
| 1787935209 | 32.22° C | 49% | 1014.3 hPa | 0 mm | - | 490 W/m² | - |
| 1787934904 | 32.22° C | 49% | 1014.2 hPa | 0 mm | - | 484 W/m² | - |
* Rain latest hour (hover to see other rain measurements)
** Current wind speed in m/s (hover to see current wind gust speed)